LEGION 2

导读

LEGION 2是美国Maxar公司WorldView Legion星座中的一颗商业光学遥感卫星,于2024年5月2日由SpaceX猎鹰九号火箭发射升空,是该星座首批入轨的两颗卫星之一。卫星基于Maxar-500平台建造,干重630公斤,运行于518公里轨道,具备30厘米级超高分辨率光学成像能力,可提升全球热点区域重访频率,为地理情报、商业应用提供高质量遥感数据。

基本信息
目录编号:
59626
目录名称:
LEGION 2
国际标识:
2024-081B
轨道中心:
EARTH
卫星名称:
LEGION 2
卫星全名:
--
卫星状态:
在轨 (已飞行856 天)
发射日期:
2024-05-02 UTC
国别 :
美国 (US)
星等 :
--
轨道信息
数据来源 国际轨道数据
星历时间: 2026-09-05T12:59:30+0800
8小时前
查看轨道信息
半长轴: 6892.669km
偏心率: 0.0012707
轨道倾角: 97.496°
近地点辐角 62.787°
升交点赤经 325.309°
平近点角 297.466°
近地点: 505.773km
远地点: 523.291km
周期: 94.916分钟
每日圈数: 15.171262
详细信息
使用方式:
暂无
2D轨道图
3D轨道图
轨道高度分析图
轨道倾角分析图
轨道综合分析图
查看轨道综合分析图
交会数据列表
事件ID 空间交会对象 最接近时刻(TCA) 交会距离 交会风险概率(CRP) 交会风险指数(CRI) 操作
CDM_260905-180605-962606-844123
LEGION 2 (59626)
HAWK-14C (68441)
2026-09-05T
18:06:17+0000
1.055 km
极远距离
2.066296E-5 中风险 0.61
CDM_260906-143901-895805-962623
LEGION 2 (59626)
2026-09-06T
14:39:09+0000
2.903 km
极远距离
1.245573E-6 低风险 0.37